FW5682 Weather Reports


Display with metric or nautical units.
time (UTC)temp
F
wind
direction
speed
MPH
gust
MPH
rain 1hr
in
rain 24hr
in
rain mn
in
humidity
%
barometer
mb
20260905144017 65 272 9.0 18.0 0.00 0.01 0.01 65 1020.8
20260905143518 65 275 9.0 21.0 0.00 0.01 0.01 66 1020.7
20260905143017 64 300 10.0 21.0 0.00 0.01 0.01 66 1020.6
20260905142514 64 244 5.0 19.0 0.00 0.01 0.01 69 1020.5
20260905142014 64 274 9.0 17.0 0.00 0.01 0.01 67 1020.4
20260905141515 65 266 9.0 21.0 0.00 0.01 0.01 66 1020.4
20260905141013 65 255 9.0 21.0 0.00 0.01 0.01 68 1020.3
20260905140512 64 265 9.0 19.0 0.00 0.01 0.01 70 1020.4
20260905140016 64 235 12.0 19.0 0.00 0.01 0.01 69 1020.4
20260905135509 65 262 9.0 16.0 0.00 0.01 0.01 68 1020.3
20260905135010 65 271 8.0 17.0 0.00 0.01 0.01 68 1020.3
20260905134512 65 292 12.0 17.0 0.00 0.01 0.01 69 1020.3
20260905134008 64 276 10.0 18.0 0.00 0.01 0.01 70 1020.3
20260905133506 65 285 12.0 18.0 0.00 0.01 0.01 68 1020.3
20260905133232 66 321 10.0 20.0 0.00 0.01 0.01 65 1020.2
20260905132730 66 272 9.0 20.0 0.00 0.01 0.01 66 1020.0
20260905132006 67 292 9.0 18.0 0.00 0.01 0.01 67 1020.0
20260905131510 66 258 11.0 20.0 0.00 0.01 0.01 66 1019.9
20260905131005 66 258 12.0 22.0 0.00 0.01 0.01 68 1019.9
20260905130504 65 207 12.0 22.0 0.00 0.01 0.01 69 1019.9
20260905130016 64 238 11.0 19.0 0.00 0.01 0.01 69 1020.0
20260905125503 65 251 8.0 16.0 0.00 0.01 0.01 68 1020.0
20260905125005 65 265 9.0 18.0 0.00 0.01 0.01 66 1020.0
20260905124508 65 244 12.0 18.0 0.00 0.01 0.01 66 1019.9
20260905124007 64 272 8.0 14.0 0.00 0.01 0.01 69 1019.9
20260905123504 65 285 8.0 13.0 0.00 0.01 0.01 69 1019.9
20260905123005 64 283 6.0 18.0 0.00 0.01 0.01 69 1019.8
20260905122503 64 271 8.0 18.0 0.00 0.01 0.01 68 1019.9
20260905122003 64 254 10.0 16.0 0.00 0.01 0.01 67 1020.0
20260905121507 65 266 10.0 17.0 0.00 0.01 0.01 66 1019.9
20260905121220 65 275 9.0 17.0 0.00 0.01 0.01 69 1019.8
20260905120503 64 240 10.0 18.0 0.00 0.01 0.01 69 1019.7
20260905120228 65 307 10.0 18.0 0.00 0.01 0.01 68 1019.5
20260905115504 66 255 11.0 18.0 0.00 0.01 0.01 67 1019.5
20260905115005 65 264 8.0 20.0 0.00 0.01 0.01 69 1019.5
20260905114503 63 327 8.0 20.0 0.00 0.01 0.01 71 1019.5
20260905114002 63 235 11.0 20.0 0.00 0.01 0.01 69 1019.5
20260905113501 65 243 12.0 19.0 0.00 0.01 0.01 67 1019.6
20260905113001 65 268 9.0 18.0 0.00 0.01 0.01 71 1019.4
20260905112500 64 283 6.0 17.0 0.00 0.01 0.01 68 1019.3
20260905111959 64 306 12.0 17.0 0.00 0.01 0.01 68 1019.2
20260905111500 65 286 6.0 19.0 0.00 0.01 0.01 70 1019.2
20260905110957 64 299 12.0 19.0 0.00 0.01 0.01 69 1019.4
20260905110457 64 333 10.0 19.0 0.00 0.01 0.01 70 1019.3
20260905105958 63 298 9.0 18.0 0.00 0.01 0.01 71 1019.4
20260905105458 63 299 10.0 18.0 0.00 0.01 0.01 71 1019.4
20260905105220 62 293 8.0 18.0 0.00 0.01 0.01 73 1019.2
20260905104455 63 313 11.0 19.0 0.00 0.01 0.01 70 1019.3
20260905103715 63 259 11.0 22.0 0.00 0.01 0.01 71 1019.1
20260905102454 63 326 7.0 20.0 0.00 0.01 0.01 73 1019.1
20260905101954 63 288 11.0 20.0 0.00 0.01 0.01 72 1019.1
20260905101452 63 258 12.0 21.0 0.00 0.01 0.01 71 1019.1
20260905100951 63 303 12.0 21.0 0.00 0.01 0.01 71 1019.0
20260905100449 62 272 12.0 20.0 0.00 0.01 0.01 71 1019.1
20260905095947 63 250 13.0 23.0 0.00 0.01 0.01 71 1019.1
20260905095448 62 298 12.0 23.0 0.00 0.01 0.01 72 1018.9
20260905094949 62 245 12.0 19.0 0.00 0.01 0.01 72 1018.8
20260905094447 62 282 7.0 21.0 0.00 0.01 0.01 73 1018.8
20260905094218 62 237 10.0 21.0 0.00 0.01 0.01 73 1018.7
20260905093710 62 282 10.0 20.0 0.00 0.01 0.01 73 1018.6
20260905092947 62 234 9.0 16.0 0.00 0.01 0.01 74 1018.7
20260905092445 62 254 10.0 18.0 0.00 0.01 0.01 74 1018.6
20260905091946 62 279 11.0 18.0 0.00 0.01 0.01 74 1018.6
20260905091446 62 261 7.0 14.0 0.00 0.01 0.01 75 1018.5
20260905090947 61 290 9.0 17.0 0.00 0.01 0.01 76 1018.4
20260905090704 60 275 7.0 17.0 0.00 0.01 0.01 77 1018.4
20260905085943 60 261 10.0 17.0 0.00 0.01 0.01 78 1018.2
20260905085713 59 283 9.0 17.0 0.00 0.01 0.01 78 1018.3
20260905084940 60 265 12.0 17.0 0.00 0.01 0.01 79 1018.2
20260905084708 59 290 6.0 15.0 0.00 0.01 0.01 81 1018.2
20260905083939 58 258 7.0 13.0 0.00 0.01 0.01 82 1017.9
20260905083437 58 252 6.0 12.0 0.00 0.01 0.01 82 1017.9
20260905082937 58 275 6.0 14.0 0.00 0.01 0.01 82 1017.9
20260905082708 58 274 6.0 14.0 0.00 0.01 0.01 82 1017.8
20260905081935 58 327 5.0 12.0 0.00 0.01 0.01 82 1017.8
20260905081439 58 275 8.0 12.0 0.00 0.01 0.01 82 1017.9
20260905080935 58 261 8.0 11.0 0.00 0.01 0.01 82 1017.8
20260905080435 58 275 4.0 13.0 0.00 0.01 0.01 83 1017.7
20260905075934 57 258 7.0 13.0 0.00 0.01 0.01 83 1017.6
20260905075655 57 244 7.0 13.0 0.00 0.01 0.01 83 1017.5
20260905074934 57 259 7.0 11.0 0.00 0.01 0.01 84 1017.4
20260905074433 56 250 5.0 14.0 0.00 0.01 0.01 84 1017.3
20260905073934 56 274 5.0 17.0 0.00 0.01 0.01 84 1017.2
20260905073435 56 274 8.0 17.0 0.00 0.01 0.01 84 1017.1
20260905072933 56 255 9.0 20.0 0.00 0.01 0.01 83 1017.0
20260905072433 56 265 8.0 20.0 0.00 0.01 0.01 83 1016.8
20260905071933 56 271 11.0 17.0 0.01 0.01 0.01 83 1016.8
20260905071434 56 276 11.0 19.0 0.01 0.01 0.01 84 1016.6
20260905070933 56 309 12.0 19.0 0.01 0.01 0.01 84 1016.6
20260905070433 56 258 10.0 18.0 0.01 0.01 0.01 85 1016.5
20260905065934 56 261 10.0 17.0 0.01 0.00 0.01 85 1016.5
20260905065706 56 285 8.0 16.0 0.01 0.00 0.01 86 1016.4
20260905064936 55 257 9.0 16.0 0.01 0.00 0.01 87 1016.4
20260905064434 55 281 8.0 15.0 0.01 0.00 0.01 87 1016.4
20260905063932 54 292 9.0 15.0 0.01 0.00 0.01 88 1016.5
20260905063433 54 288 7.0 15.0 0.01 0.00 0.01 88 1016.5
20260905062932 54 289 4.0 10.0 0.01 0.00 0.01 89 1016.4
20260905062433 54 286 5.0 11.0 0.01 0.00 0.01 89 1016.4
20260905061932 54 271 6.0 11.0 0.00 0.00 0.00 89 1016.3
20260905061433 55 274 6.0 10.0 0.00 0.00 0.00 88 1016.2
20260905060931 55 290 5.0 9.0 0.00 0.00 0.00 88 1016.2
20260905060432 55 292 4.0 12.0 0.00 0.00 0.00 87 1016.3
20260905055931 56 317 6.0 14.0 0.00 0.00 0.00 86 1016.2
20260905054932 56 265 7.0 13.0 0.00 0.00 0.00 84 1016.0
20260905054431 55 235 8.0 13.0 0.00 0.00 0.00 84 1015.8
20260905053930 55 255 7.0 14.0 0.00 0.00 0.00 84 1015.7
20260905053430 55 279 7.0 14.0 0.00 0.00 0.00 84 1015.8
20260905052931 55 254 9.0 13.0 0.00 0.00 0.00 84 1015.8
20260905052432 55 268 9.0 13.0 0.00 0.00 0.00 84 1015.8
20260905051931 55 261 7.0 13.0 0.00 0.00 0.00 84 1015.5
20260905051432 55 237 6.0 12.0 0.00 0.00 0.00 84 1015.4
20260905050930 55 282 6.0 13.0 0.00 0.00 0.00 84 1015.3
20260905050442 55 269 7.0 13.0 0.00 0.00 0.00 84 1015.3
20260905045930 55 244 7.0 11.0 0.00 0.00 0.00 84 1015.2
20260905045430 55 255 6.0 11.0 0.00 0.00 0.00 84 1015.3
20260905044931 55 269 6.0 11.0 0.00 0.00 0.00 84 1015.2
20260905044429 55 262 6.0 10.0 0.00 0.00 0.00 84 1015.1
20260905043929 55 275 3.0 11.0 0.00 0.00 0.00 84 1015.1
20260905043430 55 299 6.0 11.0 0.00 0.00 0.00 84 1015.1
20260905042930 55 258 3.0 6.0 0.00 0.00 0.00 84 1015.0
20260905042429 55 289 5.0 6.0 0.00 0.00 0.00 84 1014.9
20260905041930 55 274 3.0 6.0 0.00 0.00 0.00 84 1015.0
20260905041156 55 272 4.0 14.0 0.00 0.00 0.00 83 1014.8
20260905040429 55 241 4.0 11.0 0.00 0.00 0.00 83 1014.6
20260905040204 55 240 4.0 11.0 0.00 0.00 0.00 84 1014.6
20260905035429 55 234 6.0 14.0 0.00 0.00 0.00 84 1014.5
20260905034929 55 266 9.0 14.0 0.00 0.00 0.00 84 1014.6
20260905034428 55 245 5.0 10.0 0.00 0.00 0.00 85 1014.5
20260905033929 55 281 4.0 7.0 0.00 0.00 0.00 85 1014.5
20260905033427 55 271 4.0 9.0 0.00 0.00 0.00 85 1014.4
20260905032927 55 271 5.0 12.0 0.00 0.00 0.00 85 1014.3
20260905032656 55 241 5.0 12.0 0.00 0.00 0.00 85 1014.2
20260905032203 55 283 3.0 9.0 0.00 0.00 0.00 84 1014.2
20260905031428 55 279 5.0 9.0 0.00 0.00 0.00 84 1014.2
20260905030427 55 248 3.0 13.0 0.00 0.00 0.00 84 1014.0
20260905025928 55 281 5.0 13.0 0.00 0.00 0.00 83 1013.9
20260905025427 55 271 4.0 14.0 0.00 0.00 0.00 83 1013.9
20260905025158 55 300 8.0 14.0 0.00 0.00 0.00 83 1013.7
20260905024428 55 265 6.0 13.0 0.00 0.00 0.00 83 1013.6
20260905024156 55 265 7.0 13.0 0.00 0.00 0.00 83 1013.6
20260905023427 55 288 5.0 11.0 0.00 0.00 0.00 83 1013.4
20260905022927 56 250 6.0 16.0 0.00 0.00 0.00 82 1013.5
20260905022427 56 298 4.0 17.0 0.00 0.00 0.00 82 1013.4
20260905021701 56 282 7.0 17.0 0.00 0.01 0.00 82 1013.4
20260905020925 56 266 6.0 17.0 0.00 0.01 0.00 82 1013.3
20260905020426 56 289 7.0 15.0 0.00 0.01 0.00 82 1013.2
20260905015926 56 288 6.0 14.0 0.00 0.01 0.00 82 1013.1
20260905015426 56 285 6.0 13.0 0.00 0.01 0.00 82 1013.1
20260905015153 56 251 6.0 18.0 0.00 0.01 0.00 82 1013.1
20260905014427 56 275 7.0 18.0 0.00 0.02 0.00 81 1012.9
20260905013926 56 283 4.0 17.0 0.00 0.02 0.00 81 1013.1
20260905013652 56 286 10.0 19.0 0.00 0.02 0.00 81 1013.1
20260905012932 56 250 12.0 19.0 0.00 0.02 0.00 82 1013.0
20260905012651 56 286 5.0 19.0 0.00 0.02 0.00 82 1013.0
20260905012154 56 276 6.0 19.0 0.00 0.02 0.00 82 1012.9
20260905011424 56 264 9.0 19.0 0.00 0.03 0.00 82 1012.7
20260905010925 57 299 9.0 19.0 0.00 0.03 0.00 82 1012.7
20260905010424 57 261 8.0 18.0 0.00 0.03 0.00 82 1012.6
20260905005924 57 248 9.0 18.0 0.00 0.03 0.00 82 1012.6
20260905004924 57 285 13.0 24.0 0.00 0.04 0.00 83 1012.7
20260905004423 57 276 11.0 16.0 0.00 0.04 0.00 83 1012.6
20260905003923 57 285 9.0 19.0 0.00 0.04 0.00 83 1012.6
20260905003425 57 303 9.0 19.0 0.00 0.05 0.00 83 1012.4
20260905002924 57 261 7.0 20.0 0.00 0.05 0.00 83 1012.2
20260905002424 57 261 10.0 20.0 0.00 0.05 0.00 83 1012.1
20260905001925 57 227 12.0 23.0 0.00 0.05 0.00 83 1011.9
20260905001423 57 238 12.0 23.0 0.00 0.06 0.00 83 1011.9
20260905000923 57 281 9.0 18.0 0.00 0.06 0.00 83 1012.1
20260905000421 57 247 10.0 19.0 0.00 0.06 0.00 83 1012.0
20260904235922 57 265 12.0 20.0 0.00 0.06 0.00 82 1011.9
20260904235422 57 274 12.0 20.0 0.00 0.06 0.00 82 1011.8
20260904234922 57 247 12.0 20.0 0.00 0.07 0.00 82 1011.9
20260904234422 57 254 12.0 22.0 0.00 0.08 0.00 83 1011.9
20260904233923 57 283 12.0 22.0 0.00 0.08 0.00 82 1011.7
20260904233642 57 269 10.0 24.0 0.00 0.09 0.00 83 1011.7
20260904233145 57 306 13.0 24.0 0.00 0.09 0.00 83 1011.5
20260904232422 57 251 9.0 18.0 0.00 0.09 0.00 83 1011.6
20260904232149 58 265 10.0 20.0 0.00 0.09 0.00 84 1011.6
20260904231422 58 272 13.0 20.0 0.00 0.09 0.00 84 1011.6
20260904230922 58 233 9.0 19.0 0.00 0.10 0.00 84 1011.7
20260904230422 58 238 9.0 16.0 0.00 0.10 0.00 85 1011.6
20260904225422 58 241 10.0 18.0 0.00 0.11 0.10 86 1011.5
20260904224923 58 252 9.0 14.0 0.00 0.11 0.10 86 1011.5
20260904224421 58 269 8.0 14.0 0.00 0.12 0.10 86 1011.5
20260904223919 58 269 8.0 13.0 0.00 0.12 0.10 86 1011.5
20260904223420 58 254 6.0 15.0 0.00 0.13 0.10 86 1011.6
20260904222920 58 241 10.0 16.0 0.00 0.13 0.10 86 1011.6
20260904221920 58 245 9.0 16.0 0.00 0.13 0.10 86 1011.6
20260904221421 58 266 7.0 15.0 0.00 0.13 0.10 86 1011.7
20260904220920 58 250 6.0 16.0 0.00 0.13 0.10 86 1011.6
20260904220420 58 279 8.0 16.0 0.00 0.14 0.10 86 1011.6
20260904215918 58 251 9.0 16.0 0.00 0.14 0.10 86 1011.6
20260904215420 59 261 9.0 16.0 0.00 0.14 0.10 86 1011.5
20260904214918 59 310 9.0 16.0 0.00 0.15 0.10 85 1011.5
20260904214420 59 255 8.0 16.0 0.00 0.15 0.10 85 1011.5
20260904213919 59 282 6.0 16.0 0.00 0.15 0.10 84 1011.4
20260904213641 59 298 9.0 15.0 0.00 0.16 0.10 84 1011.4
20260904212919 59 251 9.0 15.0 0.00 0.16 0.10 84 1011.4
20260904212642 59 255 6.0 15.0 0.00 0.17 0.10 84 1011.4
20260904212142 59 261 6.0 14.0 0.00 0.17 0.10 84 1011.5
20260904211417 59 266 6.0 14.0 0.00 0.17 0.10 84 1011.5
20260904210919 59 258 6.0 14.0 0.00 0.17 0.10 84 1011.5
20260904210419 59 262 8.0 14.0 0.00 0.17 0.10 84 1011.6
20260904205418 60 237 7.0 14.0 0.00 0.17 0.10 83 1011.5
20260904204920 60 238 7.0 14.0 0.00 0.17 0.10 83 1011.7
20260904204638 60 279 7.0 14.0 0.00 0.17 0.10 83 1011.7
20260904203918 60 247 8.0 17.0 0.00 0.17 0.10 82 1011.7
20260904203420 60 237 9.0 17.0 0.00 0.17 0.10 82 1011.5
20260904202918 60 261 8.0 15.0 0.00 0.17 0.10 82 1011.4
20260904202419 60 237 7.0 14.0 0.00 0.17 0.10 82 1011.4
20260904202145 60 244 9.0 16.0 0.00 0.17 0.10 82 1011.3
20260904201417 60 251 7.0 18.0 0.00 0.17 0.10 81 1011.2
20260904200918 60 259 10.0 20.0 0.00 0.17 0.10 81 1011.3
20260904200416 60 237 13.0 20.0 0.00 0.17 0.10 81 1011.5
20260904195918 60 276 11.0 19.0 0.00 0.17 0.10 81 1011.1
20260904195417 60 244 13.0 21.0 0.00 0.17 0.10 81 1011.2
20260904194918 61 245 13.0 21.0 0.00 0.17 0.10 81 1011.1
20260904194417 61 265 12.0 20.0 0.00 0.17 0.10 80 1011.1
20260904193916 61 257 13.0 20.0 0.00 0.17 0.10 80 1011.1
20260904193417 61 312 11.0 19.0 0.00 0.17 0.10 80 1011.0
20260904193142 61 245 10.0 17.0 0.00 0.17 0.10 80 1010.8
20260904192417 61 255 10.0 20.0 0.00 0.17 0.10 80 1010.9
20260904191916 61 255 11.0 20.0 0.00 0.17 0.10 79 1010.8
20260904191417 61 264 13.0 20.0 0.00 0.17 0.10 79 1010.7
20260904190917 61 243 9.0 20.0 0.00 0.17 0.10 79 1010.6
20260904190418 61 262 13.0 22.0 0.00 0.17 0.10 79 1010.5
20260904185916 61 252 11.0 22.0 0.00 0.17 0.10 78 1010.5
20260904185415 61 226 11.0 23.0 0.00 0.17 0.10 78 1010.5
20260904184918 61 251 13.0 23.0 0.00 0.18 0.10 78 1010.4
20260904184416 61 235 13.0 26.0 0.00 0.18 0.10 78 1010.5
20260904183917 61 237 13.0 26.0 0.00 0.18 0.10 78 1010.5
20260904183416 61 259 12.0 22.0 0.00 0.18 0.10 78 1010.4
20260904182916 61 255 11.0 21.0 0.00 0.18 0.10 77 1010.2
20260904182652 61 259 12.0 22.0 0.00 0.18 0.10 78 1010.2
20260904181917 61 257 14.0 22.0 0.00 0.18 0.10 77 1010.2
20260904181416 61 243 11.0 21.0 0.00 0.18 0.10 77 1010.3
20260904180918 61 250 11.0 21.0 0.00 0.18 0.10 77 1010.1
20260904180416 61 240 12.0 19.0 0.00 0.18 0.10 77 1010.1
20260904175916 61 272 9.0 18.0 0.00 0.18 0.10 76 1010.0
20260904175414 61 235 11.0 18.0 0.00 0.18 0.10 76 1009.9
20260904174915 61 255 7.0 17.0 0.00 0.18 0.10 75 1009.9
20260904174657 61 268 7.0 24.0 0.00 0.18 0.10 75 1009.8
20260904173915 61 281 12.0 24.0 0.00 0.18 0.10 75 1009.7
20260904173415 61 255 11.0 19.0 0.00 0.18 0.10 75 1009.5
20260904172914 61 288 12.0 23.0 0.00 0.18 0.10 74 1009.4
20260904172413 61 268 14.0 23.0 0.00 0.18 0.10 74 1009.4
20260904171914 61 252 9.0 23.0 0.00 0.18 0.10 74 1009.5
20260904171415 61 243 12.0 23.0 0.00 0.18 0.10 74 1009.3
20260904170915 61 266 10.0 18.0 0.00 0.18 0.10 74 1009.3
20260904170413 61 313 10.0 20.0 0.00 0.18 0.10 74 1009.1
20260904165913 62 276 11.0 23.0 0.00 0.18 0.10 74 1008.9
20260904165414 62 309 15.0 23.0 0.00 0.18 0.10 73 1008.7
20260904164914 62 288 12.0 23.0 0.00 0.18 0.10 74 1008.6
20260904164414 62 243 12.0 29.0 0.00 0.18 0.10 74 1008.4
20260904163913 62 289 17.0 29.0 0.00 0.18 0.10 73 1008.3
20260904163412 62 235 12.0 26.0 0.00 0.18 0.10 73 1008.2
20260904162913 62 261 14.0 29.0 0.00 0.18 0.10 72 1008.0
20260904162414 62 285 14.0 29.0 0.00 0.18 0.10 71 1008.0
20260904161911 62 266 13.0 29.0 0.00 0.18 0.10 72 1008.0
20260904161412 62 257 14.0 29.0 0.00 0.18 0.10 72 1007.6
20260904160912 62 276 17.0 30.0 0.00 0.18 0.10 72 1007.5
20260904160643 62 288 18.0 30.0 0.00 0.18 0.10 73 1007.7
20260904155912 62 265 18.0 27.0 0.00 0.18 0.10 73 1008.0
20260904155411 62 248 15.0 30.0 0.00 0.18 0.10 73 1007.8
20260904154911 62 252 19.0 30.0 0.00 0.18 0.10 73 1008.0
20260904154412 62 265 17.0 30.0 0.00 0.18 0.10 73 1008.2
20260904153912 63 285 21.0 30.0 0.00 0.18 0.10 72 1008.2
20260904153411 63 259 12.0 30.0 0.00 0.18 0.10 73 1008.2
20260904152911 63 259 15.0 32.0 0.00 0.18 0.10 73 1008.1
20260904152411 63 279 19.0 32.0 0.00 0.18 0.10 72 1008.0
20260904152138 64 235 17.0 31.0 0.00 0.18 0.10 73 1008.0
20260904151411 64 292 13.0 26.0 0.00 0.18 0.10 72 1007.6
20260904151134 64 243 12.0 20.0 0.00 0.18 0.10 72 1007.7
20260904150411 63 266 11.0 26.0 0.00 0.18 0.10 74 1007.5
20260904145910 63 293 17.0 27.0 0.00 0.18 0.10 72 1007.4
20260904145413 63 265 13.0 27.0 0.00 0.18 0.10 73 1007.3
20260904144912 63 230 13.0 32.0 0.00 0.18 0.10 72 1007.1
20260904144411 63 317 18.0 32.0 0.00 0.18 0.10 72 1007.0